Theta_e
317 317 318 318 317 315 314 314 314 315 315 315 315 315 315 315 319 328 335 330 333 332 330 336 338 337 337 339 338 342 343 343 342 344 346 348 350 349 351 353 353 352 354 355 352
317 317 317 318 318 316 314 314 314 315 315 316 315 315 314 315 324 329 330 328 330 331 332 335 338 335 338 336 338 340 341 340 339 339 341 344 347 347 351 352 357 355 354 354 353
317 317 317 317 317 317 315 314 314 314 315 315 315 315 315 315 331 331 325 326 326 327 330 333 335 335 336 335 335 339 339 338 338 339 339 340 344 345 348 350 351 355 358 356 353
317 317 316 316 316 317 317 314 314 314 314 315 315 315 315 323 331 328 323 327 327 328 332 334 336 336 335 336 334 337 336 336 335 336 336 339 339 342 344 347 346 350 356 356 354
317 316 315 315 315 315 317 315 313 314 314 315 315 315 321 329 327 326 324 328 331 332 334 336 336 336 335 335 334 334 335 334 334 334 335 337 340 341 342 346 348 350 355 356 354
316 315 315 315 315 316 317 315 313 313 314 315 315 315 327 327 325 325 325 328 333 333 334 334 335 334 335 335 334 335 335 334 334 335 336 337 338 343 347 348 349 351 355 355 355
316 315 315 314 315 316 316 315 313 313 314 315 315 321 325 326 324 325 326 329 332 334 334 334 332 334 335 335 334 334 336 336 335 335 335 337 339 342 347 347 351 351 353 353 354
316 314 314 314 315 316 317 315 313 313 314 315 315 326 325 322 323 323 326 329 331 331 331 333 332 334 334 334 334 336 336 337 335 333 338 338 341 347 346 346 348 351 353 353 353
315 314 314 314 315 316 317 313 313 313 315 316 323 326 324 320 321 323 326 329 331 331 331 330 331 334 334 335 336 335 336 334 335 334 333 336 336 347 347 344 345 352 353 353 354
315 314 314 313 315 316 313 313 313 316 317 323 323 326 323 322 322 325 327 329 331 331 332 332 333 334 335 335 338 338 334 334 334 334 333 334 334 345 348 344 349 351 353 353 353
315 313 313 314 316 313 314 319 325 327 324 323 323 324 322 324 324 326 328 328 330 331 334 334 334 334 335 335 334 335 332 333 333 333 333 335 336 339 346 346 349 348 350 349 353
314 313 313 315 315 314 319 326 326 325 326 323 322 322 323 324 324 328 327 329 330 332 334 333 333 334 335 333 332 333 332 332 332 333 333 335 336 341 343 345 345 348 350 349 348
314 313 314 315 314 314 320 323 326 326 330 323 322 323 323 323 326 328 327 329 331 333 333 333 331 334 333 332 332 332 331 331 332 333 333 337 346 344 345 346 347 350 349 349 350
314 314 316 313 313 321 321 321 324 326 333 326 325 325 326 325 326 328 326 329 330 331 330 331 332 331 332 331 332 331 332 330 330 332 335 336 352 346 346 347 348 348 346 346 348
314 314 317 313 322 321 323 322 325 327 334 325 326 326 326 327 326 325 326 328 329 329 330 330 332 331 330 331 331 331 331 330 330 332 334 337 348 347 345 346 348 345 345 346 345
315 317 317 314 319 324 325 326 325 330 333 327 327 326 326 327 325 325 325 327 328 328 329 330 330 330 330 331 330 330 330 331 330 332 333 340 339 355 346 344 346 345 345 344 346
319 320 318 323 325 324 326 326 330 332 329 327 326 326 326 326 326 325 325 327 329 328 328 328 330 329 330 330 330 330 330 332 332 332 340 339 340 349 342 344 343 345 345 344 346
320 320 319 322 323 325 327 327 334 328 328 328 326 327 326 326 326 325 326 327 328 327 328 328 328 329 330 330 332 333 332 332 335 338 339 338 336 346 342 345 345 344 343 346 346
321 322 324 323 322 325 327 332 330 328 331 328 328 327 327 327 327 326 327 327 328 328 329 329 330 331 331 332 333 335 333 332 332 334 335 340 340 346 344 345 344 345 346 346 348
325 329 325 323 324 325 331 331 331 334 334 329 330 329 329 327 327 327 327 328 327 327 329 331 334 334 333 334 334 335 335 332 333 342 343 345 347 352 350 346 346 346 347 349 349
325 331 324 323 325 330 330 330 331 333 334 334 330 329 330 329 327 328 329 329 328 327 329 333 335 335 335 334 334 333 334 333 337 339 339 343 346 342 344 345 345 347 350 350 349
332 334 322 325 330 330 330 330 322 333 334 334 335 333 330 329 329 330 331 330 328 328 330 331 333 339 335 337 337 336 338 340 339 346 343 343 346 342 343 343 345 347 352 352 351
339 335 324 327 331 331 331 331 330 332 333 335 335 334 332 330 329 330 330 331 329 331 332 333 333 342 341 336 335 335 336 336 335 335 340 336 347 344 343 344 344 350 356 357 355
336 333 329 328 330 332 330 330 330 331 331 334 338 337 337 331 330 331 331 331 331 332 337 335 333 335 343 344 340 339 337 335 334 335 335 335 340 345 345 348 346 353 355 356 356
336 341 334 330 329 330 330 330 327 332 334 337 339 339 338 333 330 334 331 334 333 334 333 333 335 337 339 339 338 335 332 332 333 333 332 332 333 336 348 346 347 355 356 356 356
334 341 338 337 333 329 327 332 331 333 338 337 340 338 337 331 331 333 333 335 335 337 335 335 341 342 341 335 334 336 336 334 334 333 333 333 333 347 347 347 352 356 355 356 355
328 329 334 336 335 333 332 330 332 337 338 339 338 339 336 336 336 336 335 335 335 337 336 336 335 340 337 339 340 339 338 336 334 331 333 337 351 349 349 349 353 355 354 354 353
Wind_Speed
15 14 14 14 13 12 12 11 11 10 10 10 11 12 14 17 14 9 11 5 1 4 5 7 7 8 6 6 6 10 1 8 9 11 9 6 3 7 2 6 3 5 8 19 21
15 15 14 14 14 13 12 12 11 10 9 10 11 11 12 16 14 16 4 4 6 8 11 10 7 4 12 2 3 12 8 9 6 6 6 9 4 5 5 6 10 6 9 17 20
16 16 16 15 14 14 12 11 10 9 9 9 10 10 11 14 13 5 5 8 13 12 12 12 10 11 12 2 1 3 7 3 6 9 9 6 4 4 6 7 7 8 12 15 17
16 16 16 16 15 13 12 11 10 9 8 8 8 9 10 7 5 9 4 4 10 12 13 15 12 14 8 2 3 7 2 1 3 2 4 7 7 7 4 6 6 6 14 15 15
17 17 16 17 15 14 12 10 9 8 7 7 6 7 6 11 16 6 3 2 7 11 16 12 11 8 9 1 3 9 2 4 2 2 4 3 5 8 6 3 2 9 13 16 15
19 18 18 17 15 14 12 10 8 7 6 5 4 5 7 15 2 3 3 7 11 13 13 10 9 9 9 8 9 4 7 6 3 4 4 6 9 2 8 3 2 7 12 14 14
19 20 19 18 16 14 11 9 7 6 5 4 3 4 12 14 2 6 7 10 12 13 10 10 6 11 6 13 3 6 10 5 7 3 6 7 16 4 7 3 5 5 8 11 13
20 21 20 18 16 12 9 6 6 6 5 4 4 6 11 9 11 8 10 10 9 8 12 3 9 13 11 4 9 8 8 6 7 4 5 7 3 9 4 3 4 5 7 8 11
22 22 21 18 15 9 4 4 5 4 4 3 5 9 12 10 12 16 15 14 12 10 8 5 12 16 9 14 14 8 5 3 3 3 6 5 9 11 4 1 2 7 10 8 10
23 23 20 17 12 2 5 7 5 5 4 5 10 7 12 14 17 15 15 14 13 12 10 12 11 14 13 12 5 3 6 2 2 6 6 9 6 14 7 3 4 5 6 9 7
24 23 19 16 7 9 11 5 6 7 14 10 9 11 7 7 9 14 15 14 12 13 15 17 14 15 19 5 9 9 8 8 2 3 10 9 3 4 4 3 4 0 3 2 12
25 25 19 15 2 16 5 8 9 6 10 19 8 12 4 5 14 16 17 14 14 15 17 13 14 16 1 2 8 10 13 13 3 3 9 11 9 7 5 4 3 3 1 2 2
27 25 18 11 3 12 13 12 4 7 8 14 14 13 12 12 15 17 16 18 15 17 16 14 18 7 2 9 11 15 14 9 6 3 14 10 17 9 8 7 5 5 2 7 3
30 26 14 1 2 8 14 12 7 5 6 12 12 11 8 12 12 20 20 15 10 15 11 17 6 6 9 12 14 15 4 3 8 11 11 4 4 3 12 10 6 5 5 1 6
33 25 10 14 9 10 6 4 6 5 7 17 15 14 14 18 18 10 17 13 11 13 11 12 10 7 13 12 9 13 5 10 12 12 18 10 10 12 10 13 10 6 5 6 4
33 20 3 7 8 7 4 4 7 7 4 11 11 14 17 15 11 14 14 13 11 12 12 17 8 11 16 13 5 12 10 14 14 15 10 8 3 4 11 10 10 9 5 3 7
28 11 16 5 1 5 5 8 7 9 16 12 18 19 18 13 12 16 17 17 11 12 13 16 11 13 11 10 12 11 16 13 12 10 3 19 14 15 7 12 10 7 8 4 5
19 3 7 11 4 5 9 9 10 4 13 15 15 18 15 14 14 18 17 16 18 17 10 14 13 17 13 15 17 15 16 13 4 6 8 13 1 6 11 14 10 6 9 4 6
7 4 9 7 11 7 8 11 10 8 8 11 16 16 15 14 7 17 17 17 16 13 17 11 13 20 12 13 14 15 6 18 14 10 9 5 2 12 12 12 10 8 7 7 8
6 9 8 8 10 10 8 17 2 8 5 9 13 13 15 16 10 15 16 15 15 15 20 3 9 11 11 11 14 17 15 6 6 1 10 7 17 7 11 10 10 8 7 8 8
7 6 6 11 9 8 10 12 2 5 7 8 13 10 13 14 16 15 14 12 17 16 15 10 9 5 10 12 9 11 12 10 7 11 8 3 4 8 8 9 8 7 4 7 8
11 6 10 15 8 10 13 5 5 6 9 6 8 10 12 15 15 14 13 13 15 18 17 17 8 13 9 5 13 12 7 15 9 4 14 13 9 8 10 8 9 8 5 7 8
5 4 10 13 7 11 14 4 9 9 8 7 10 9 8 9 11 14 9 13 8 8 13 13 12 7 15 15 10 9 3 12 15 7 12 6 6 6 8 9 6 7 9 7 8
5 5 6 8 13 15 15 14 15 14 11 7 8 8 10 12 13 12 12 9 9 11 6 9 17 12 2 14 11 6 6 7 9 10 13 9 12 13 9 9 6 5 9 10 6
5 5 4 8 12 13 11 9 17 12 11 6 9 13 12 13 16 12 15 14 11 6 7 11 17 11 18 14 24 7 5 5 7 8 10 16 13 4 10 6 8 9 8 9 9
5 5 5 11 1 14 8 11 14 12 7 12 14 15 15 15 14 14 16 11 14 10 12 15 6 11 21 12 6 10 9 10 11 10 10 11 12 12 7 10 8 9 10 9 9
9 8 5 5 10 11 13 14 13 11 3 14 10 14 16 4 7 6 14 12 16 14 16 15 13 9 14 2 10 10 12 12 3 8 11 9 11 5 8 10 10 10 10 10 8
Wind_Direction
344 338 333 328 323 313 303 297 296 299 304 309 316 320 322 323 315 281 250 60 206 228 279 255 232 253 227 242 244 255 297 61 60 67 97 85 53 64 7 95 13 69 24 128 149
343 336 331 326 321 311 299 292 290 291 295 302 312 319 323 324 309 267 213 226 221 218 258 244 256 259 237 192 228 270 66 67 358 63 81 104 354 29 297 102 132 96 92 131 155
341 336 330 324 319 312 298 287 283 283 287 295 308 313 317 321 275 220 134 213 225 230 260 281 275 262 271 269 141 8 58 21 87 36 345 5 177 109 309 61 41 136 142 154 163
341 337 331 325 318 313 300 284 274 272 276 284 302 307 307 290 251 78 53 210 212 229 252 260 248 256 283 248 128 253 163 37 9 75 319 320 356 327 55 40 16 114 150 162 171
343 340 332 325 319 311 301 287 267 260 263 273 295 308 304 233 252 135 350 233 197 212 237 245 262 274 256 294 211 261 37 212 185 297 357 357 295 7 338 104 113 120 154 167 176
342 339 333 326 318 310 298 281 259 245 247 259 285 298 248 253 65 169 239 216 221 218 228 242 262 337 310 257 269 49 275 274 241 307 314 336 311 22 100 60 126 149 166 171 179
344 339 333 328 318 306 291 274 243 230 230 240 264 294 262 249 309 215 223 213 211 226 234 233 273 259 292 248 92 249 268 273 213 360 317 327 261 162 65 168 130 175 179 175 179
342 340 334 328 318 301 280 252 218 210 211 223 240 262 256 215 237 226 217 210 205 221 266 195 250 271 265 321 202 253 245 262 101 342 98 267 337 107 127 140 193 153 164 190 179
342 340 335 327 316 296 259 191 181 183 191 202 251 231 247 166 215 215 210 210 198 211 220 254 250 246 224 239 221 190 268 349 167 119 307 234 321 124 95 295 305 147 161 188 183
342 341 336 327 318 284 156 149 155 148 201 236 264 245 242 217 195 194 198 230 193 199 200 221 227 233 234 231 282 103 302 175 298 45 294 286 283 101 80 334 143 138 152 162 213
342 342 335 328 317 148 127 141 197 193 208 216 190 245 145 120 137 198 186 210 219 202 213 200 220 226 232 221 13 324 287 278 219 72 290 294 311 68 63 161 151 219 177 175 176
343 342 333 328 269 166 174 242 20 352 215 222 246 254 263 240 183 192 185 202 206 214 215 194 232 231 292 24 263 244 254 265 169 196 261 282 310 83 138 99 82 70 171 112 145
343 339 331 328 188 191 220 235 315 317 254 172 207 213 194 205 197 177 198 207 200 222 203 235 201 220 212 227 240 238 251 309 337 270 258 257 350 132 132 150 141 129 131 98 118
341 336 329 155 215 199 230 241 246 308 258 145 186 214 182 214 210 180 198 202 214 228 198 228 159 233 236 234 234 270 27 269 264 263 280 224 46 286 149 148 162 156 64 16 34
339 333 315 188 315 217 68 202 246 254 221 158 153 134 174 217 140 190 188 212 226 224 217 211 237 205 235 235 233 277 349 290 275 261 259 192 105 299 188 141 146 88 109 83 327
336 327 296 202 242 246 229 245 223 234 166 152 145 179 177 219 195 150 186 232 244 215 213 255 189 240 225 231 240 268 285 253 244 248 275 312 257 161 270 98 115 115 114 73 85
334 308 183 212 227 184 228 214 227 254 145 154 169 173 191 186 158 174 183 198 198 196 203 220 219 220 246 248 225 233 252 247 228 225 89 252 268 177 153 90 91 107 116 85 60
332 225 236 207 247 230 216 224 251 134 183 152 176 175 199 173 171 185 191 200 224 219 207 202 206 205 197 234 260 214 253 275 271 256 149 265 257 92 95 101 97 111 107 112 83
328 245 222 228 212 222 224 225 227 180 121 162 171 186 202 177 190 196 205 216 202 230 251 186 247 177 212 215 237 259 255 276 296 254 230 123 241 122 122 115 117 107 111 107 100
295 223 156 177 186 214 238 251 3 8 321 189 186 202 193 185 209 199 194 211 215 205 254 240 201 183 181 231 247 271 318 224 275 100 280 31 293 92 131 141 128 129 121 117 117
254 226 125 171 188 225 231 234 183 190 245 242 237 186 215 186 207 191 189 220 212 189 221 262 239 184 164 213 206 201 238 236 184 256 262 158 169 230 102 128 139 114 149 127 118
281 255 149 167 210 227 228 242 2 253 195 256 302 281 225 183 203 201 217 202 192 185 206 231 279 188 201 103 210 305 88 256 273 63 336 301 102 75 99 104 130 135 121 90 99
269 92 166 207 226 215 235 241 228 241 217 216 224 235 261 200 199 233 208 110 181 219 203 217 248 114 222 196 196 243 241 315 312 289 219 304 119 122 122 118 133 138 132 132 132
274 188 157 211 265 288 208 215 222 208 263 275 272 251 238 243 197 212 190 153 193 232 23 291 243 292 164 321 316 301 253 279 303 298 318 308 119 151 128 133 145 134 153 138 126
241 300 61 190 222 238 273 241 217 223 213 212 227 240 230 223 206 222 214 137 197 131 221 240 250 167 148 181 248 297 273 267 278 304 301 315 328 14 82 139 170 151 136 151 150
305 340 340 291 337 206 191 237 245 218 249 214 233 210 239 216 208 210 195 171 184 175 216 226 240 8 273 187 227 250 260 278 273 269 280 288 272 74 103 122 150 157 158 146 136
8 275 270 246 227 215 221 221 211 245 175 266 225 254 210 259 330 32 220 182 184 182 217 223 259 206 242 110 336 256 251 281 333 306 298 272 74 116 127 147 169 159 164 147 142